Powrót do katalogu

COSMOS 589

AktywnyMilitariaLEO
NORAD 6846·PAYLOAD·🇷🇺 Russia

Wystrzelony Oct 2, 1973 z Plesetsk Cosmodrome

Loading…

Następne Przeloty (najbliższe 24 godziny)

TLE

ŚwieżeSource: Space-Track

Epoka: Sep 14, 2026, 06:52 UTC

1 06846U 73069B   26257.28631391 -.00000013  00000-0  17486-4 0  9999
2 06846  74.0045  11.8653 0046405 105.3723 280.9739 12.53236906422351

Śledź COSMOS 589 w czasie rzeczywistym z AllMySat

Download on the App Store